| time (UTC) | temp F | wind direction | speed MPH | gust MPH | rain 1hr in | rain 24hr in | rain mn in | humidity % | barometer mb |
| 20260504203559 | 82 | 136 | 2.0 | 6.0 | 0.00 | 0.00 | 0.00 | 57 | 1010.7 |
| 20260504203056 | 82 | 174 | 4.0 | 7.0 | 0.00 | 0.00 | 0.00 | 57 | 1010.6 |
| 20260504202550 | 84 | 117 | 2.0 | 5.0 | 0.00 | 0.00 | 0.00 | 56 | 1010.7 |
| 20260504202048 | 83 | 162 | 3.0 | 8.0 | 0.00 | 0.00 | 0.00 | 55 | 1010.8 |
| 20260504201545 | 83 | 178 | 2.0 | 8.0 | 0.00 | 0.00 | 0.00 | 55 | 1010.9 |
| 20260504201043 | 82 | 185 | 4.0 | 6.0 | 0.00 | 0.00 | 0.00 | 57 | 1011.3 |
| 20260504200539 | 83 | 155 | 4.0 | 9.0 | 0.00 | 0.00 | 0.00 | 56 | 1011.4 |
| 20260504200036 | 83 | 153 | 4.0 | 7.0 | 0.00 | 0.00 | 0.00 | 56 | 1011.4 |
| 20260504195532 | 83 | 185 | 2.0 | 6.0 | 0.00 | 0.00 | 0.00 | 56 | 1011.4 |
| 20260504195028 | 83 | 103 | 2.0 | 6.0 | 0.00 | 0.00 | 0.00 | 56 | 1011.5 |
| 20260504194525 | 84 | 137 | 3.0 | 7.0 | 0.00 | 0.00 | 0.00 | 55 | 1011.4 |
| 20260504194020 | 82 | 325 | 1.0 | 5.0 | 0.00 | 0.00 | 0.00 | 56 | 1011.4 |
| 20260504193517 | 82 | 218 | 2.0 | 4.0 | 0.00 | 0.00 | 0.00 | 55 | 1011.8 |
| 20260504193017 | 83 | 168 | 9.0 | 11.0 | 0.00 | 0.00 | 0.00 | 55 | 1011.7 |
| 20260504192514 | 85 | 137 | 0.0 | 5.0 | 0.00 | 0.00 | 0.00 | 54 | 1011.7 |
| 20260504192012 | 83 | 149 | 2.0 | 6.0 | 0.00 | 0.00 | 0.00 | 57 | 1011.8 |
| 20260504191510 | 82 | 163 | 3.0 | 9.0 | 0.00 | 0.00 | 0.00 | 56 | 1011.7 |
| 20260504191005 | 82 | 217 | 0.0 | 5.0 | 0.00 | 0.00 | 0.00 | 56 | 1012.0 |
| 20260504190501 | 82 | 140 | 4.0 | 9.0 | 0.00 | 0.00 | 0.00 | 55 | 1012.0 |
| 20260504185957 | 82 | 183 | 7.0 | 9.0 | 0.00 | 0.00 | 0.00 | 55 | 1011.9 |
| 20260504185455 | 83 | 214 | 4.0 | 9.0 | 0.00 | 0.00 | 0.00 | 55 | 1012.3 |
| 20260504184951 | 83 | 190 | 1.0 | 8.0 | 0.00 | 0.00 | 0.00 | 54 | 1012.1 |
| 20260504184447 | 83 | 204 | 7.0 | 9.0 | 0.00 | 0.00 | 0.00 | 54 | 1012.2 |
| 20260504183943 | 83 | 223 | 2.0 | 6.0 | 0.00 | 0.00 | 0.00 | 57 | 1012.2 |
| 20260504183440 | 82 | 166 | 4.0 | 5.0 | 0.00 | 0.00 | 0.00 | 56 | 1012.4 |
| 20260504182938 | 81 | 194 | 1.0 | 9.0 | 0.00 | 0.00 | 0.00 | 58 | 1012.3 |
| 20260504182434 | 81 | 184 | 4.0 | 8.0 | 0.00 | 0.00 | 0.00 | 58 | 1012.5 |
| 20260504181932 | 80 | 173 | 3.0 | 10.0 | 0.00 | 0.00 | 0.00 | 58 | 1012.1 |
| 20260504181429 | 80 | 164 | 4.0 | 8.0 | 0.00 | 0.00 | 0.00 | 59 | 1012.4 |
| 20260504180928 | 81 | 149 | 2.0 | 10.0 | 0.00 | 0.00 | 0.00 | 60 | 1012.7 |
| 20260504180426 | 81 | 162 | 7.0 | 9.0 | 0.00 | 0.00 | 0.00 | 57 | 1012.9 |
| 20260504175924 | 80 | 171 | 4.0 | 10.0 | 0.00 | 0.00 | 0.00 | 59 | 1012.7 |
| 20260504175421 | 80 | 180 | 3.0 | 7.0 | 0.00 | 0.00 | 0.00 | 59 | 1012.8 |
| 20260504174918 | 81 | 153 | 4.0 | 7.0 | 0.00 | 0.00 | 0.00 | 58 | 1012.7 |
| 20260504174416 | 82 | 269 | 6.0 | 9.0 | 0.00 | 0.00 | 0.00 | 55 | 1012.9 |
| 20260504173913 | 81 | 200 | 4.0 | 8.0 | 0.00 | 0.00 | 0.00 | 56 | 1013.0 |
| 20260504173409 | 80 | 158 | 3.0 | 11.0 | 0.00 | 0.00 | 0.00 | 57 | 1013.1 |
| 20260504172907 | 80 | 215 | 7.0 | 8.0 | 0.00 | 0.00 | 0.00 | 56 | 1013.1 |
| 20260504172403 | 81 | 164 | 4.0 | 9.0 | 0.00 | 0.00 | 0.00 | 55 | 1013.0 |
| 20260504171859 | 81 | 278 | 4.0 | 8.0 | 0.00 | 0.00 | 0.00 | 56 | 1013.2 |
| 20260504171356 | 79 | 234 | 1.0 | 9.0 | 0.00 | 0.00 | 0.00 | 59 | 1013.6 |
| 20260504170853 | 79 | 217 | 8.0 | 14.0 | 0.00 | 0.00 | 0.00 | 58 | 1013.6 |
| 20260504170350 | 80 | 149 | 3.0 | 12.0 | 0.00 | 0.00 | 0.00 | 58 | 1013.4 |
| 20260504160309 | 76 | 195 | 2.0 | 10.0 | 0.00 | 0.00 | 0.00 | 64 | 1014.1 |
| 20260504150734 | 76 | 189 | 4.0 | 8.0 | 0.00 | 0.00 | 0.00 | 64 | 1014.3 |
| 20260504150230 | 75 | 165 | 6.0 | 6.0 | 0.00 | 0.00 | 0.00 | 64 | 1014.4 |
| 20260504141159 | 73 | 209 | 2.0 | 7.0 | 0.00 | 0.00 | 0.00 | 64 | 1014.3 |
| 20260504140656 | 73 | 145 | 2.0 | 4.0 | 0.00 | 0.00 | 0.00 | 64 | 1014.3 |
| 20260504140152 | 73 | 138 | 3.0 | 5.0 | 0.00 | 0.00 | 0.00 | 64 | 1014.4 |
| 20260504130620 | 67 | 235 | 0.0 | 4.0 | 0.00 | 0.00 | 0.00 | 73 | 1014.3 |
| 20260504130117 | 67 | 159 | 3.0 | 4.0 | 0.00 | 0.00 | 0.00 | 71 | 1014.2 |
| 20260504110508 | 59 | 238 | 2.0 | 2.0 | 0.00 | 0.00 | 0.00 | 85 | 1013.7 |
| 20260504100431 | 59 | 300 | 1.0 | 2.0 | 0.00 | 0.00 | 0.00 | 86 | 1014.3 |
| 20260504081824 | 61 | 221 | 2.0 | 3.0 | 0.00 | 0.00 | 0.00 | 79 | 1014.6 |
| 20260504081320 | 61 | 220 | 2.0 | 2.0 | 0.00 | 0.00 | 0.00 | 80 | 1014.6 |
| 20260504080816 | 62 | 220 | 1.0 | 2.0 | 0.00 | 0.00 | 0.00 | 80 | 1014.8 |
| 20260504080314 | 62 | 259 | 0.0 | 2.0 | 0.00 | 0.00 | 0.00 | 79 | 1014.9 |
| 20260504070235 | 63 | 229 | 0.0 | 3.0 | 0.00 | 0.00 | 0.00 | 73 | 1016.1 |
| 20260504060155 | 64 | 224 | 2.0 | 3.0 | 0.00 | 0.00 | 0.00 | 72 | 1016.5 |
| 20260504050623 | 64 | 243 | 1.0 | 3.0 | 0.00 | 0.00 | 0.00 | 70 | 1016.7 |
| 20260504050120 | 64 | 208 | 2.0 | 3.0 | 0.00 | 0.00 | 0.00 | 69 | 1016.8 |
| 20260504045617 | 64 | 212 | 0.0 | 3.0 | 0.00 | 0.00 | 0.00 | 68 | 1016.6 |
| 20260504045112 | 65 | 230 | 0.0 | 2.0 | 0.00 | 0.00 | 0.00 | 68 | 1016.8 |
| 20260504044610 | 65 | 238 | 2.0 | 3.0 | 0.00 | 0.00 | 0.00 | 67 | 1016.8 |
| 20260504044107 | 65 | 169 | 2.0 | 4.0 | 0.00 | 0.00 | 0.00 | 68 | 1016.9 |
| 20260504043604 | 65 | 227 | 1.0 | 4.0 | 0.00 | 0.00 | 0.00 | 67 | 1017.1 |
| 20260504043101 | 65 | 212 | 3.0 | 3.0 | 0.00 | 0.00 | 0.00 | 67 | 1016.9 |
| 20260504042558 | 65 | 193 | 2.0 | 3.0 | 0.00 | 0.00 | 0.00 | 66 | 1016.9 |
| 20260504042055 | 66 | 246 | 0.0 | 3.0 | 0.00 | 0.00 | 0.00 | 65 | 1017.0 |
| 20260504041550 | 66 | 214 | 1.0 | 4.0 | 0.00 | 0.00 | 0.00 | 65 | 1016.9 |
| 20260504041047 | 66 | 186 | 0.0 | 3.0 | 0.00 | 0.00 | 0.00 | 64 | 1016.9 |
| 20260504040545 | 66 | 230 | 0.0 | 4.0 | 0.00 | 0.00 | 0.00 | 64 | 1017.1 |
| 20260504040042 | 67 | 195 | 1.0 | 3.0 | 0.00 | 0.00 | 0.00 | 63 | 1016.9 |
| 20260504035538 | 66 | 183 | 1.0 | 3.0 | 0.00 | 0.00 | 0.00 | 63 | 1016.9 |
| 20260504035035 | 67 | 214 | 2.0 | 5.0 | 0.00 | 0.00 | 0.00 | 63 | 1016.9 |
| 20260504034533 | 67 | 194 | 2.0 | 3.0 | 0.00 | 0.00 | 0.00 | 62 | 1017.0 |
| 20260504034029 | 67 | 192 | 4.0 | 5.0 | 0.00 | 0.00 | 0.00 | 62 | 1017.1 |
| 20260504033528 | 67 | 224 | 1.0 | 4.0 | 0.00 | 0.00 | 0.00 | 61 | 1017.1 |
| 20260504033025 | 67 | 169 | 0.0 | 4.0 | 0.00 | 0.00 | 0.00 | 62 | 1017.1 |
| 20260504032521 | 67 | 333 | 2.0 | 3.0 | 0.00 | 0.00 | 0.00 | 61 | 1017.1 |
| 20260504032018 | 68 | 215 | 2.0 | 3.0 | 0.00 | 0.00 | 0.00 | 60 | 1016.9 |
| 20260504031515 | 68 | 157 | 3.0 | 4.0 | 0.00 | 0.00 | 0.00 | 60 | 1016.9 |
| 20260504031010 | 68 | 204 | 1.0 | 4.0 | 0.00 | 0.00 | 0.00 | 59 | 1017.0 |
| 20260504030508 | 68 | 194 | 2.0 | 3.0 | 0.00 | 0.00 | 0.00 | 60 | 1016.8 |
| 20260504030004 | 68 | 222 | 1.0 | 3.0 | 0.00 | 0.00 | 0.00 | 59 | 1016.8 |
| 20260504025502 | 69 | 206 | 1.0 | 4.0 | 0.00 | 0.00 | 0.00 | 58 | 1016.8 |
| 20260504024958 | 69 | 171 | 1.0 | 4.0 | 0.00 | 0.00 | 0.00 | 58 | 1016.7 |
| 20260504024455 | 69 | 179 | 2.0 | 4.0 | 0.00 | 0.00 | 0.00 | 58 | 1016.6 |
| 20260504023953 | 69 | 246 | 0.0 | 3.0 | 0.00 | 0.00 | 0.00 | 57 | 1016.5 |
| 20260504023449 | 69 | 140 | 1.0 | 5.0 | 0.00 | 0.00 | 0.00 | 57 | 1016.4 |
| 20260504022944 | 69 | 154 | 2.0 | 6.0 | 0.00 | 0.00 | 0.00 | 56 | 1016.3 |
| 20260504022441 | 69 | 126 | 1.0 | 4.0 | 0.00 | 0.00 | 0.00 | 55 | 1016.4 |
| 20260504021938 | 69 | 178 | 2.0 | 4.0 | 0.00 | 0.00 | 0.00 | 56 | 1016.4 |
| 20260504021435 | 70 | 186 | 3.0 | 5.0 | 0.00 | 0.00 | 0.00 | 55 | 1016.5 |
| 20260504020932 | 70 | 157 | 2.0 | 4.0 | 0.00 | 0.00 | 0.00 | 55 | 1016.4 |
| 20260504020429 | 70 | 203 | 0.0 | 4.0 | 0.00 | 0.00 | 0.00 | 55 | 1016.5 |
| 20260504015926 | 71 | 229 | 2.0 | 5.0 | 0.00 | 0.00 | 0.00 | 54 | 1016.4 |
| 20260504015421 | 71 | 164 | 4.0 | 6.0 | 0.00 | 0.00 | 0.00 | 53 | 1016.2 |
| 20260504014918 | 71 | 175 | 2.0 | 4.0 | 0.00 | 0.00 | 0.00 | 53 | 1016.3 |
| 20260504014414 | 71 | 159 | 1.0 | 4.0 | 0.00 | 0.00 | 0.00 | 53 | 1016.1 |
| 20260504013911 | 72 | 178 | 3.0 | 5.0 | 0.00 | 0.00 | 0.00 | 52 | 1016.2 |
| 20260504013409 | 72 | 200 | 1.0 | 4.0 | 0.00 | 0.00 | 0.00 | 53 | 1016.1 |
| 20260504012905 | 72 | 187 | 5.0 | 7.0 | 0.00 | 0.00 | 0.00 | 52 | 1016.1 |
| 20260504012403 | 72 | 166 | 3.0 | 5.0 | 0.00 | 0.00 | 0.00 | 51 | 1016.1 |
| 20260504011900 | 73 | 209 | 4.0 | 8.0 | 0.00 | 0.00 | 0.00 | 51 | 1016.3 |
| 20260504011357 | 73 | 199 | 4.0 | 7.0 | 0.00 | 0.00 | 0.00 | 50 | 1015.8 |
| 20260504010853 | 73 | 171 | 4.0 | 8.0 | 0.00 | 0.00 | 0.00 | 49 | 1015.8 |
| 20260504010348 | 73 | 125 | 4.0 | 6.0 | 0.00 | 0.00 | 0.00 | 49 | 1016.0 |
| 20260504005839 | 74 | 158 | 3.0 | 8.0 | 0.00 | 0.00 | 0.00 | 49 | 1016.0 |
| 20260504005336 | 74 | 194 | 1.0 | 4.0 | 0.00 | 0.00 | 0.00 | 49 | 1016.2 |
| 20260504004834 | 74 | 177 | 4.0 | 4.0 | 0.00 | 0.00 | 0.00 | 48 | 1016.0 |
| 20260504004332 | 75 | 175 | 2.0 | 8.0 | 0.00 | 0.00 | 0.00 | 47 | 1015.9 |
| 20260504003827 | 75 | 168 | 3.0 | 6.0 | 0.00 | 0.00 | 0.00 | 47 | 1015.9 |
| 20260504003325 | 75 | 171 | 2.0 | 5.0 | 0.00 | 0.00 | 0.00 | 46 | 1016.0 |
| 20260504002821 | 75 | 230 | 0.0 | 4.0 | 0.00 | 0.00 | 0.00 | 46 | 1016.0 |
| 20260504002318 | 76 | 139 | 3.0 | 3.0 | 0.00 | 0.00 | 0.00 | 45 | 1016.0 |
| 20260504001816 | 76 | 168 | 2.0 | 6.0 | 0.00 | 0.00 | 0.00 | 44 | 1015.9 |
| 20260504001313 | 77 | 200 | 2.0 | 4.0 | 0.00 | 0.00 | 0.00 | 43 | 1015.9 |
| 20260504000810 | 78 | 153 | 2.0 | 4.0 | 0.00 | 0.00 | 0.00 | 41 | 1015.9 |
| 20260504000307 | 78 | 195 | 1.0 | 5.0 | 0.00 | 0.00 | 0.00 | 41 | 1015.9 |
| 20260503235804 | 78 | 183 | 4.0 | 6.0 | 0.00 | 0.00 | 0.00 | 41 | 1016.3 |
| 20260503235301 | 78 | 120 | 2.0 | 5.0 | 0.00 | 0.00 | 0.00 | 42 | 1016.2 |
| 20260503234759 | 78 | 118 | 6.0 | 6.0 | 0.00 | 0.00 | 0.00 | 39 | 1016.1 |
| 20260503234256 | 79 | 160 | 2.0 | 6.0 | 0.00 | 0.00 | 0.00 | 36 | 1016.2 |
| 20260503233753 | 79 | 159 | 2.0 | 4.0 | 0.00 | 0.00 | 0.00 | 37 | 1016.0 |
| 20260503233250 | 80 | 163 | 2.0 | 6.0 | 0.00 | 0.00 | 0.00 | 36 | 1016.1 |
| 20260503232747 | 80 | 156 | 1.0 | 4.0 | 0.00 | 0.00 | 0.00 | 36 | 1016.1 |
| 20260503232244 | 80 | 191 | 5.0 | 6.0 | 0.00 | 0.00 | 0.00 | 36 | 1016.1 |
| 20260503231742 | 80 | 196 | 1.0 | 4.0 | 0.00 | 0.00 | 0.00 | 35 | 1016.4 |
| 20260503231239 | 80 | 93 | 2.0 | 5.0 | 0.00 | 0.00 | 0.00 | 35 | 1016.3 |
| 20260503230735 | 80 | 121 | 4.0 | 10.0 | 0.00 | 0.00 | 0.00 | 36 | 1016.3 |
| 20260503230232 | 80 | 145 | 10.0 | 13.0 | 0.00 | 0.00 | 0.00 | 35 | 1016.2 |
| 20260503225729 | 80 | 203 | 3.0 | 11.0 | 0.00 | 0.00 | 0.00 | 36 | 1016.3 |
| 20260503225229 | 80 | 164 | 3.0 | 7.0 | 0.00 | 0.00 | 0.00 | 35 | 1016.3 |
| 20260503224726 | 81 | 158 | 4.0 | 9.0 | 0.00 | 0.00 | 0.00 | 36 | 1016.5 |
| 20260503224224 | 81 | 177 | 2.0 | 5.0 | 0.00 | 0.00 | 0.00 | 37 | 1016.6 |
| 20260503223721 | 81 | 196 | 4.0 | 5.0 | 0.00 | 0.00 | 0.00 | 35 | 1016.6 |
| 20260503223219 | 81 | 180 | 5.0 | 5.0 | 0.00 | 0.00 | 0.00 | 35 | 1016.6 |
| 20260503222715 | 80 | 137 | 0.0 | 4.0 | 0.00 | 0.00 | 0.00 | 37 | 1016.7 |
| 20260503222214 | 80 | 257 | 3.0 | 6.0 | 0.00 | 0.00 | 0.00 | 36 | 1016.6 |
| 20260503221711 | 80 | 151 | 4.0 | 6.0 | 0.00 | 0.00 | 0.00 | 37 | 1016.8 |
| 20260503221209 | 80 | 157 | 5.0 | 5.0 | 0.00 | 0.00 | 0.00 | 35 | 1016.9 |
| 20260503220705 | 82 | 77 | 1.0 | 6.0 | 0.00 | 0.00 | 0.00 | 34 | 1016.9 |
| 20260503220202 | 83 | 273 | 0.0 | 3.0 | 0.00 | 0.00 | 0.00 | 35 | 1016.9 |
| 20260503215658 | 82 | 207 | 2.0 | 5.0 | 0.00 | 0.00 | 0.00 | 35 | 1016.7 |
| 20260503215155 | 81 | 173 | 3.0 | 6.0 | 0.00 | 0.00 | 0.00 | 37 | 1016.8 |
| 20260503214649 | 82 | 129 | 6.0 | 9.0 | 0.00 | 0.00 | 0.00 | 35 | 1016.7 |
| 20260503214144 | 83 | 132 | 4.0 | 5.0 | 0.00 | 0.00 | 0.00 | 33 | 1016.8 |
| 20260503213644 | 82 | 152 | 2.0 | 6.0 | 0.00 | 0.00 | 0.00 | 35 | 1017.0 |
| 20260503213140 | 82 | 156 | 6.0 | 9.0 | 0.00 | 0.00 | 0.00 | 36 | 1017.4 |
| 20260503212638 | 81 | 332 | 0.0 | 3.0 | 0.00 | 0.00 | 0.00 | 36 | 1017.3 |
| 20260503212135 | 80 | 0 | 2.0 | 6.0 | 0.00 | 0.00 | 0.00 | 36 | 1017.5 |
| 20260503211632 | 82 | 171 | 4.0 | 9.0 | 0.00 | 0.00 | 0.00 | 36 | 1017.6 |
| 20260503211127 | 82 | 164 | 3.0 | 4.0 | 0.00 | 0.00 | 0.00 | 35 | 1017.6 |
| 20260503210624 | 83 | 279 | 1.0 | 4.0 | 0.00 | 0.00 | 0.00 | 33 | 1017.6 |
| 20260503210120 | 82 | 315 | 3.0 | 4.0 | 0.00 | 0.00 | 0.00 | 35 | 1017.6 |
| 20260503205616 | 83 | 146 | 4.0 | 8.0 | 0.00 | 0.00 | 0.00 | 34 | 1017.7 |
| 20260503205113 | 82 | 153 | 2.0 | 4.0 | 0.00 | 0.00 | 0.00 | 34 | 1017.7 |
| 20260503204609 | 81 | 175 | 2.0 | 8.0 | 0.00 | 0.00 | 0.00 | 35 | 1017.8 |
| 20260503204107 | 81 | 268 | 1.0 | 6.0 | 0.00 | 0.00 | 0.00 | 38 | 1018.1 |